CSB3301 LSZH-EPGD

Flight info

Callsign CSB3301
Flight time 1h 41m
Altitude 35000
Route DEGES Z2 XEBIX N871 BEPAS DCT IPDUL DCT LEGAZ DCT TOMTI DCT ATMIR P733 IRLUN
Aircraft MD11/H-SDE1E2E3FGHIJ2J3J4J5M1RWXY/LB1D1

Departure

Time 2026-04-30 11:54
Airport Zürich Airport (LSZH)

Arrival

Time 2026-04-30 13:36
Airport Gdańsk Lech Wałęsa Airport (EPGD)
Time Latitude Longitude Altitude Speed Heading
2026-04-30 10:56 47.45327 8.55942 1414 ft 0 kts
2026-04-30 11:43 47.45326 8.55942 1416 ft 2 kts
2026-04-30 11:44 47.45301 8.55939 1420 ft 4 kts
2026-04-30 11:44 47.45276 8.55933 1414 ft 4 kts 355°
2026-04-30 11:44 47.45258 8.55941 1417 ft 4 kts 319°
2026-04-30 11:44 47.45246 8.55963 1414 ft 4 kts 272°
2026-04-30 11:45 47.45246 8.55996 1414 ft 1 kts 276°
2026-04-30 11:49 47.45247 8.55988 1417 ft 1 kts 276°
2026-04-30 11:49 47.45248 8.55964 1414 ft 4 kts 276°
2026-04-30 11:49 47.45252 8.55906 1418 ft 7 kts 276°
2026-04-30 11:49 47.45258 8.55821 1414 ft 9 kts 275°
2026-04-30 11:50 47.45264 8.55723 1414 ft 11 kts 275°
2026-04-30 11:50 47.45272 8.55603 1414 ft 12 kts 278°
2026-04-30 11:50 47.45306 8.55479 1411 ft 15 kts 302°
2026-04-30 11:50 47.45366 8.55339 1410 ft 17 kts 301°
2026-04-30 11:51 47.45412 8.55176 1409 ft 18 kts 288°
2026-04-30 11:51 47.45451 8.54998 1409 ft 19 kts 288°
2026-04-30 11:51 47.45494 8.54806 1406 ft 20 kts 289°
2026-04-30 11:51 47.45538 8.54614 1403 ft 20 kts 289°
2026-04-30 11:52 47.45583 8.54419 1398 ft 20 kts 289°
2026-04-30 11:52 47.45629 8.54219 1399 ft 21 kts 288°
2026-04-30 11:52 47.45670 8.54023 1401 ft 20 kts 287°
2026-04-30 11:52 47.45705 8.53853 1407 ft 11 kts 290°
2026-04-30 11:53 47.45734 8.53785 1410 ft 5 kts 316°
2026-04-30 11:53 47.45760 8.53758 1411 ft 4 kts 330°
2026-04-30 11:53 47.45802 8.53753 1405 ft 11 kts 359°
2026-04-30 11:53 47.45875 8.53804 1413 ft 12 kts 53°
2026-04-30 11:54 47.45880 8.53949 1411 ft 19 kts 96°
2026-04-30 11:54 47.45861 8.54242 1409 ft 56 kts 96°
2026-04-30 11:54 47.45789 8.55365 1419 ft 154 kts 92°
2026-04-30 11:54 47.45692 8.57016 2227 ft 170 kts 93°
2026-04-30 11:55 47.45558 8.58816 3326 ft 182 kts 93°
2026-04-30 11:55 47.45408 8.60740 4318 ft 193 kts 96°
2026-04-30 11:55 47.45262 8.62720 5258 ft 197 kts 96°
2026-04-30 11:55 47.45225 8.64797 6130 ft 203 kts 84°
2026-04-30 11:56 47.45394 8.66869 6968 ft 209 kts 84°
2026-04-30 11:56 47.45516 8.69040 7734 ft 214 kts 85°
2026-04-30 11:56 47.45657 8.71305 8310 ft 230 kts 85°
2026-04-30 11:56 47.45788 8.73760 8797 ft 249 kts 86°
2026-04-30 11:57 47.45884 8.76389 9405 ft 263 kts 88°
2026-04-30 11:57 47.45892 8.79162 10045 ft 279 kts 92°
2026-04-30 11:57 47.45671 8.82130 10481 ft 303 kts 97°
2026-04-30 11:57 47.45321 8.85345 10820 ft 328 kts 98°
2026-04-30 11:58 47.44915 8.88779 11188 ft 349 kts 99°
2026-04-30 11:58 47.44457 8.92332 12093 ft 355 kts 99°
2026-04-30 11:58 47.44004 8.95943 13002 ft 359 kts 98°
2026-04-30 11:58 47.43566 8.99605 13885 ft 364 kts 98°
2026-04-30 11:59 47.43143 9.03306 14752 ft 367 kts 97°
2026-04-30 11:59 47.42726 9.07054 15583 ft 372 kts 97°
2026-04-30 11:59 47.42316 9.10799 16389 ft 376 kts 96°
2026-04-30 11:59 47.41902 9.14624 17189 ft 380 kts 96°
2026-04-30 12:00 47.41510 9.18495 17912 ft 382 kts 92°
2026-04-30 12:00 47.41576 9.22408 18633 ft 382 kts 80°
2026-04-30 12:00 47.42029 9.26275 19355 ft 383 kts 76°
2026-04-30 12:00 47.42625 9.30127 20053 ft 386 kts 74°
2026-04-30 12:01 47.43262 9.33996 20721 ft 389 kts 73°
2026-04-30 12:01 47.43898 9.37894 21387 ft 393 kts 74°
2026-04-30 12:01 47.44523 9.41838 22047 ft 396 kts 74°
2026-04-30 12:01 47.45138 9.45814 22701 ft 399 kts 74°
2026-04-30 12:02 47.45750 9.49831 23351 ft 402 kts 74°
2026-04-30 12:02 47.46359 9.53883 23996 ft 405 kts 74°
2026-04-30 12:02 47.46956 9.57977 24573 ft 409 kts 76°
2026-04-30 12:02 47.47212 9.62198 25148 ft 416 kts 86°
2026-04-30 12:03 47.47116 9.66502 25707 ft 422 kts 90°
2026-04-30 12:03 47.46582 9.75200 26821 ft 428 kts 91°
2026-04-30 12:03 47.46293 9.79590 27311 ft 431 kts 91°
2026-04-30 12:04 47.46017 9.84011 27817 ft 433 kts 91°
2026-04-30 12:04 47.45753 9.88462 28334 ft 436 kts 91°
2026-04-30 12:04 47.45496 9.92947 28787 ft 439 kts 91°
2026-04-30 12:04 47.45241 9.97456 29246 ft 442 kts 91°
2026-04-30 12:05 47.44987 10.01991 29721 ft 444 kts 91°
2026-04-30 12:05 47.44732 10.06549 30205 ft 446 kts 91°
2026-04-30 12:05 47.44473 10.11124 30701 ft 448 kts 90°
2026-04-30 12:05 47.44203 10.15712 31259 ft 448 kts 91°
2026-04-30 12:06 47.43791 10.20274 31792 ft 449 kts 94°
2026-04-30 12:06 47.43238 10.24809 32338 ft 449 kts 96°
2026-04-30 12:06 47.42623 10.29339 32860 ft 448 kts 96°
2026-04-30 12:06 47.41992 10.33852 33314 ft 448 kts 96°
2026-04-30 12:07 47.41364 10.38360 33769 ft 448 kts 96°
2026-04-30 12:07 47.40772 10.42880 34170 ft 446 kts 94°
2026-04-30 12:07 47.40503 10.47405 34543 ft 440 kts 85°
2026-04-30 12:07 47.40786 10.51864 34917 ft 434 kts 75°
2026-04-30 12:08 47.41592 10.56135 35191 ft 433 kts 67°
2026-04-30 12:08 47.43812 10.64444 35278 ft 435 kts 65°
2026-04-30 12:09 47.46027 10.72707 35288 ft 435 kts 66°
2026-04-30 12:09 47.48131 10.81110 35282 ft 436 kts 67°
2026-04-30 12:10 47.50181 10.89562 35286 ft 437 kts 67°
2026-04-30 12:10 47.52219 10.98020 35294 ft 436 kts 67°
2026-04-30 12:11 47.54253 11.06475 35293 ft 436 kts 67°
2026-04-30 12:11 47.56277 11.14940 35278 ft 435 kts 67°
2026-04-30 12:12 47.58293 11.23378 35291 ft 435 kts 67°
2026-04-30 12:12 47.60306 11.31813 35278 ft 433 kts 67°
2026-04-30 12:13 47.62284 11.40238 35284 ft 433 kts 68°
2026-04-30 12:13 47.64068 11.48723 35292 ft 433 kts 69°
2026-04-30 12:14 47.65794 11.57257 35299 ft 431 kts 69°
2026-04-30 12:14 47.67519 11.65774 35304 ft 430 kts 70°
2026-04-30 12:15 47.69250 11.74293 35308 ft 429 kts 69°
2026-04-30 12:15 47.70927 11.82794 35311 ft 428 kts 70°
2026-04-30 12:16 47.72532 11.91314 35306 ft 427 kts 70°
2026-04-30 12:16 47.74377 11.99668 35309 ft 423 kts 63°
2026-04-30 12:17 47.79356 12.10228 35317 ft 416 kts 42°
2026-04-30 12:17 47.84042 12.15276 35327 ft 417 kts 30°
2026-04-30 12:18 47.89416 12.18488 35338 ft 420 kts 19°
2026-04-30 12:18 47.95068 12.20776 35349 ft 421 kts 19°
2026-04-30 12:19 48.00392 12.24269 35348 ft 417 kts 33°
2026-04-30 12:19 48.04817 12.29817 35361 ft 417 kts 47°
2026-04-30 12:20 48.08400 12.36648 35347 ft 418 kts 52°
2026-04-30 12:20 48.12307 12.43028 35368 ft 416 kts 41°
2026-04-30 12:21 48.16729 12.48611 35368 ft 416 kts 39°
2026-04-30 12:21 48.20451 12.53191 35366 ft 416 kts 39°
2026-04-30 12:22 48.24996 12.58561 35368 ft 416 kts 37°
2026-04-30 12:22 48.29641 12.63745 35367 ft 416 kts 37°
2026-04-30 12:23 48.34294 12.68931 35369 ft 416 kts 37°
2026-04-30 12:23 48.38940 12.74149 35363 ft 416 kts 38°
2026-04-30 12:24 48.43324 12.79824 35376 ft 416 kts 42°
2026-04-30 12:24 48.47524 12.85761 35377 ft 416 kts 43°
2026-04-30 12:25 48.51744 12.91745 35376 ft 416 kts 42°
2026-04-30 12:25 48.55894 12.97850 35379 ft 416 kts 44°
2026-04-30 12:26 48.59933 13.04129 35387 ft 417 kts 45°
2026-04-30 12:26 48.63963 13.10431 35403 ft 417 kts 45°
2026-04-30 12:27 48.67997 13.16735 35404 ft 417 kts 45°
2026-04-30 12:27 48.72031 13.23041 35404 ft 416 kts 45°
2026-04-30 12:28 48.76059 13.29352 35409 ft 416 kts 45°
2026-04-30 12:28 48.80079 13.35666 35420 ft 416 kts 45°
2026-04-30 12:29 48.84098 13.41992 35422 ft 416 kts 45°
2026-04-30 12:29 48.88137 13.48299 35420 ft 415 kts 42°
2026-04-30 12:30 48.92885 13.53072 35431 ft 415 kts 25°
2026-04-30 12:30 48.98294 13.56205 35433 ft 416 kts 21°
2026-04-30 12:31 49.03726 13.59194 35430 ft 414 kts 22°
2026-04-30 12:31 49.09110 13.62305 35430 ft 413 kts 23°
2026-04-30 12:32 49.14453 13.65477 35440 ft 411 kts 23°
2026-04-30 12:32 49.19786 13.68666 35438 ft 411 kts 24°
2026-04-30 12:33 49.25103 13.71855 35440 ft 409 kts 24°
2026-04-30 12:33 49.30412 13.75039 35439 ft 408 kts 24°
2026-04-30 12:34 49.35690 13.78213 35449 ft 407 kts 24°
2026-04-30 12:34 49.40954 13.81384 35450 ft 406 kts 24°
2026-04-30 12:35 49.46131 13.84796 35449 ft 403 kts 27°
2026-04-30 12:35 49.51140 13.88669 35450 ft 402 kts 29°
2026-04-30 12:36 49.56088 13.92563 35450 ft 401 kts 29°
2026-04-30 12:36 49.61058 13.96453 35449 ft 400 kts 28°
2026-04-30 12:37 49.66023 14.00333 35450 ft 400 kts 29°
2026-04-30 12:37 49.70979 14.04209 35449 ft 400 kts 29°
2026-04-30 12:38 49.75952 14.08104 35450 ft 400 kts 29°
2026-04-30 12:38 49.80915 14.12000 35454 ft 399 kts 29°
2026-04-30 12:39 49.85859 14.15890 35458 ft 398 kts 29°
2026-04-30 12:39 49.90805 14.19796 35457 ft 399 kts 29°
2026-04-30 12:40 49.95724 14.23685 35460 ft 398 kts 29°
2026-04-30 12:40 50.00662 14.27598 35456 ft 398 kts 29°
2026-04-30 12:41 50.05616 14.31533 35459 ft 399 kts 29°
2026-04-30 12:41 50.10556 14.35468 35458 ft 398 kts 29°
2026-04-30 12:42 50.15484 14.39400 35458 ft 398 kts 29°
2026-04-30 12:42 50.20408 14.43359 35457 ft 398 kts 29°
2026-04-30 12:43 50.25333 14.47343 35457 ft 398 kts 29°
2026-04-30 12:43 50.30251 14.51308 35457 ft 397 kts 29°
2026-04-30 12:44 50.35154 14.55262 35458 ft 399 kts 29°
2026-04-30 12:44 50.40089 14.59245 35456 ft 398 kts 29°
2026-04-30 12:45 50.45016 14.63236 35459 ft 399 kts 29°
2026-04-30 12:45 50.49960 14.67247 35457 ft 399 kts 29°
2026-04-30 12:46 50.54893 14.71257 35459 ft 399 kts 29°
2026-04-30 12:46 50.59824 14.75277 35461 ft 399 kts 29°
2026-04-30 12:47 50.64752 14.79331 35455 ft 398 kts 31°
2026-04-30 12:47 50.69091 14.84714 35459 ft 399 kts 44°
2026-04-30 12:48 50.72874 14.91159 35457 ft 401 kts 46°
2026-04-30 12:48 50.76609 14.97633 35460 ft 400 kts 46°
2026-04-30 12:49 50.80400 15.04090 35458 ft 400 kts 45°
2026-04-30 12:49 50.84205 15.10527 35461 ft 401 kts 45°
2026-04-30 12:50 50.88017 15.16982 35457 ft 400 kts 45°
2026-04-30 12:50 50.91817 15.23431 35459 ft 401 kts 45°
2026-04-30 12:51 50.95862 15.29486 35459 ft 399 kts 37°
2026-04-30 12:51 51.00367 15.34643 35458 ft 399 kts 35°
2026-04-30 12:52 51.04901 15.39657 35457 ft 399 kts 35°
2026-04-30 12:52 51.09432 15.44736 35458 ft 398 kts 35°
2026-04-30 12:53 51.13951 15.49850 35458 ft 398 kts 35°
2026-04-30 12:53 51.18454 15.54971 35457 ft 397 kts 35°
2026-04-30 12:54 51.22952 15.60099 35458 ft 397 kts 35°
2026-04-30 12:54 51.27443 15.65231 35459 ft 396 kts 35°
2026-04-30 12:55 51.31920 15.70363 35459 ft 395 kts 35°
2026-04-30 12:55 51.36376 15.75483 35458 ft 395 kts 35°
2026-04-30 12:56 51.40834 15.80614 35459 ft 394 kts 35°
2026-04-30 12:56 51.45287 15.85756 35459 ft 393 kts 35°
2026-04-30 12:57 51.49719 15.90887 35459 ft 392 kts 35°
2026-04-30 12:57 51.54146 15.96022 35458 ft 393 kts 35°
2026-04-30 12:58 51.58544 16.01132 35458 ft 392 kts 35°
2026-04-30 12:58 51.62960 16.06300 35459 ft 393 kts 36°
2026-04-30 12:59 51.67367 16.11500 35457 ft 392 kts 35°
2026-04-30 12:59 51.71772 16.16684 35459 ft 391 kts 35°
2026-04-30 13:00 51.76158 16.21847 35456 ft 389 kts 36°
2026-04-30 13:00 51.80562 16.27030 35459 ft 392 kts 35°
2026-04-30 13:01 51.84227 16.31355 35459 ft 392 kts 35°
2026-04-30 13:01 51.88632 16.36566 35459 ft 392 kts 36°
2026-04-30 13:02 51.93028 16.41782 35459 ft 392 kts 36°
2026-04-30 13:02 51.97427 16.47008 35457 ft 393 kts 36°
2026-04-30 13:03 52.01837 16.52264 35458 ft 393 kts 36°
2026-04-30 13:03 52.06231 16.57514 35458 ft 391 kts 36°
2026-04-30 13:04 52.10582 16.62720 35459 ft 391 kts 36°
2026-04-30 13:04 52.14970 16.67983 35457 ft 392 kts 36°
2026-04-30 13:05 52.19359 16.73266 35460 ft 392 kts 36°
2026-04-30 13:06 52.25934 16.81206 35431 ft 392 kts 36°
2026-04-30 13:06 52.30313 16.86531 35430 ft 392 kts 36°
2026-04-30 13:07 52.34674 16.91883 35430 ft 392 kts 36°
2026-04-30 13:07 52.39046 16.97227 35431 ft 393 kts 36°
2026-04-30 13:08 52.43435 17.02589 35431 ft 393 kts 36°
2026-04-30 13:08 52.47818 17.07953 35430 ft 393 kts 36°
2026-04-30 13:09 52.52168 17.13285 35431 ft 393 kts 36°
2026-04-30 13:09 52.56547 17.18668 35423 ft 393 kts 36°
2026-04-30 13:10 52.60924 17.24065 35421 ft 393 kts 36°
2026-04-30 13:10 52.65301 17.29475 35421 ft 393 kts 36°
2026-04-30 13:11 52.69674 17.34896 35422 ft 392 kts 36°
2026-04-30 13:11 52.74040 17.40317 35423 ft 393 kts 36°
2026-04-30 13:12 52.78409 17.45739 35414 ft 393 kts 36°
2026-04-30 13:12 52.82857 17.50976 35397 ft 393 kts 34°
2026-04-30 13:13 52.87354 17.56141 34653 ft 390 kts 34°
2026-04-30 13:13 52.89566 17.58679 34138 ft 386 kts 34°
2026-04-30 13:13 52.93935 17.63702 33065 ft 378 kts 35°
2026-04-30 13:14 52.96072 17.66166 32548 ft 379 kts 34°
2026-04-30 13:14 52.98248 17.68679 32024 ft 381 kts 34°
2026-04-30 13:14 53.02620 17.73738 30971 ft 385 kts 34°
2026-04-30 13:15 53.04819 17.76286 30432 ft 386 kts 34°
2026-04-30 13:15 53.09251 17.81432 29196 ft 391 kts 34°
2026-04-30 13:15 53.11489 17.84034 28593 ft 394 kts 34°
2026-04-30 13:16 53.13745 17.86662 27973 ft 397 kts 34°
2026-04-30 13:16 53.16021 17.89317 27347 ft 401 kts 34°
2026-04-30 13:16 53.18311 17.91993 26717 ft 402 kts 34°
2026-04-30 13:17 53.22865 17.97328 25467 ft 398 kts 34°
2026-04-30 13:17 53.25122 17.99976 24839 ft 395 kts 34°
2026-04-30 13:17 53.29598 18.05239 23615 ft 391 kts 34°
2026-04-30 13:18 53.31810 18.07846 23004 ft 389 kts 34°
2026-04-30 13:18 53.36192 18.13013 21802 ft 385 kts 34°
2026-04-30 13:18 53.38374 18.15592 21201 ft 383 kts 34°
2026-04-30 13:19 53.40512 18.18246 20594 ft 382 kts 36°
2026-04-30 13:19 53.42603 18.20982 19925 ft 380 kts 37°
2026-04-30 13:19 53.44668 18.23732 19273 ft 378 kts 37°
2026-04-30 13:19 53.46726 18.26480 18617 ft 376 kts 37°
2026-04-30 13:20 53.48770 18.29209 17967 ft 374 kts 37°
2026-04-30 13:20 53.50804 18.31922 17327 ft 373 kts 37°
2026-04-30 13:20 53.52831 18.34620 16687 ft 370 kts 37°
2026-04-30 13:20 53.54846 18.37303 16051 ft 368 kts 37°
2026-04-30 13:21 53.56849 18.39972 15444 ft 366 kts 37°
2026-04-30 13:21 53.58857 18.42592 14852 ft 364 kts 35°
2026-04-30 13:21 53.60910 18.45078 14321 ft 363 kts 34°
2026-04-30 13:22 53.65048 18.49882 13272 ft 359 kts 33°
2026-04-30 13:22 53.67086 18.52234 12976 ft 358 kts 33°
2026-04-30 13:22 53.70906 18.56657 12698 ft 306 kts 33°
2026-04-30 13:23 53.72596 18.58621 12552 ft 284 kts 33°
2026-04-30 13:23 53.75814 18.61847 12347 ft 263 kts 24°
2026-04-30 13:24 53.79544 18.63899 11910 ft 291 kts 13°
2026-04-30 13:24 53.83288 18.65301 11384 ft 259 kts 13°
2026-04-30 13:25 53.86775 18.66677 11224 ft 258 kts 13°
2026-04-30 13:25 53.90264 18.68101 11024 ft 258 kts 14°
2026-04-30 13:26 53.95498 18.70292 10553 ft 259 kts 14°
2026-04-30 13:26 53.98955 18.71762 9709 ft 256 kts 13°
2026-04-30 13:27 54.02437 18.73240 8644 ft 261 kts 13°
2026-04-30 13:28 54.07647 18.75460 7243 ft 251 kts 13°
2026-04-30 13:28 54.11031 18.76907 6469 ft 251 kts 13°
2026-04-30 13:28 54.12725 18.77633 6089 ft 251 kts 13°
2026-04-30 13:29 54.16102 18.79080 5317 ft 250 kts 13°
2026-04-30 13:29 54.19425 18.80507 4622 ft 248 kts 12°
2026-04-30 13:30 54.24441 18.82669 3972 ft 246 kts 12°
2026-04-30 13:31 54.27561 18.82752 3647 ft 221 kts 338°
2026-04-30 13:31 54.30215 18.76659 2958 ft 218 kts 297°
2026-04-30 13:32 54.31466 18.72049 2948 ft 198 kts 293°
2026-04-30 13:32 54.32422 18.68149 2874 ft 171 kts 293°
2026-04-30 13:33 54.33321 18.64508 2421 ft 157 kts 294°
2026-04-30 13:33 54.34125 18.61271 2037 ft 145 kts 294°
2026-04-30 13:34 54.34513 18.59695 1826 ft 141 kts 294°
2026-04-30 13:34 54.35634 18.55087 1327 ft 144 kts 294°
2026-04-30 13:35 54.36016 18.53570 1077 ft 144 kts 295°
2026-04-30 13:35 54.36788 18.50478 719 ft 139 kts 295°
2026-04-30 13:36 54.37480 18.47742 473 ft 89 kts 292°
2026-04-30 13:36 54.37644 18.47078 466 ft 32 kts 293°
2026-04-30 13:36 54.37808 18.46757 462 ft 14 kts 321°
2026-04-30 13:37 54.37869 18.46686 463 ft 8 kts 330°
2026-04-30 13:37 54.37912 18.46680 467 ft 8 kts 12°
2026-04-30 13:38 54.38020 18.46754 467 ft 3 kts 23°
2026-04-30 13:38 54.38029 18.46760 467 ft 0 kts 23°